Location: Unspecified
(0.0000°N, 0.0000°E)
Time: 18:54:58
(UTC+00:00)

Courier 1B - Pass Details

Date: 21 November 2019
Orbit: 963 x 1209 km, 28.3° (Epoch: 06 December)

Event Time Altitude Azimuth Distance (km) Brightness Sun altitude
Rises 11:59:28 0° 310° (NW) 3,626 10.4 69.8°
Reaches altitude 10° 12:02:10 10° 315° (NW) 2,683 9.8 69.7°
Maximum altitude 12:08:25 52° 30° (NNE) 1,199 8.6 69.3°
Drops below altitude 10° 12:14:53 10° 105° (ESE) 2,775 10.0 68.9°
Sets 12:17:42 0° 110° (ESE) 3,760 10.6 68.6°
